Time,TemperatureF,DewpointF,PressureIn,WindDirection,WindDirectionDegrees,WindSpeedMPH,WindSpeedGustMPH,Humidity,HourlyPrecipIn,Conditions,Clouds,dailyrainin,SoftwareType,DateUTC
2013-08-10 00:00:00,83.0,77.0,30.12,South,190,12.0,15.0,81,-99.99,,,-99.99,,2013-08-10 04:00:00,
2013-08-10 00:32:00,83.0,77.0,30.12,South,190,12.0,15.0,81,-99.99,,,-99.99,,2013-08-10 04:32:00,
2013-08-10 00:42:00,83.0,77.0,30.12,South,190,12.0,15.0,81,-99.99,,,-99.99,,2013-08-10 04:42:00,
2013-08-10 00:53:00,83.0,77.0,30.12,South,190,12.0,15.0,81,-99.99,,,-99.99,,2013-08-10 04:53:00,
2013-08-10 01:00:00,83.0,76.0,30.12,SSW,200,9.0,12.0,80,-99.99,,,-99.99,,2013-08-10 05:00:00,
2013-08-10 01:32:00,83.0,76.0,30.12,SSW,200,9.0,12.0,80,-99.99,,,-99.99,,2013-08-10 05:32:00,
2013-08-10 01:42:00,83.0,76.0,30.12,SSW,200,9.0,12.0,80,-99.99,,,-99.99,,2013-08-10 05:42:00,
2013-08-10 01:52:00,83.0,76.0,30.12,SSW,200,9.0,12.0,80,-99.99,,,-99.99,,2013-08-10 05:52:00,
2013-08-10 03:00:00,82.0,76.0,30.11,SSW,210,12.0,13.0,82,-99.99,,,-99.99,,2013-08-10 07:00:00,
2013-08-10 03:33:00,82.0,76.0,30.11,SSW,210,12.0,13.0,82,-99.99,,,-99.99,,2013-08-10 07:33:00,
2013-08-10 03:43:00,82.0,76.0,30.11,SSW,210,12.0,13.0,82,-99.99,,,-99.99,,2013-08-10 07:43:00,
2013-08-10 03:52:00,82.0,76.0,30.11,SSW,210,12.0,13.0,82,-99.99,,,-99.99,,2013-08-10 07:52:00,
2013-08-10 04:00:00,82.0,76.0,30.11,SSW,210,13.0,15.0,81,-99.99,,,-99.99,,2013-08-10 08:00:00,
2013-08-10 04:43:00,82.0,76.0,30.11,SSW,210,13.0,15.0,81,-99.99,,,-99.99,,2013-08-10 08:43:00,
2013-08-10 04:52:00,82.0,76.0,30.11,SSW,210,13.0,15.0,81,-99.99,,,-99.99,,2013-08-10 08:52:00,
2013-08-10 06:00:00,81.0,76.0,30.12,SW,230,7.0,8.0,83,-99.99,,,-99.99,,2013-08-10 10:00:00,
2013-08-10 06:33:00,81.0,76.0,30.12,SW,230,7.0,8.0,83,-99.99,,,-99.99,,2013-08-10 10:33:00,
2013-08-10 06:43:00,81.0,76.0,30.12,SW,230,7.0,8.0,83,-99.99,,,-99.99,,2013-08-10 10:43:00,
2013-08-10 06:52:00,81.0,76.0,30.12,SW,230,7.0,8.0,83,-99.99,,,-99.99,,2013-08-10 10:52:00,
2013-08-10 07:00:00,80.0,76.0,30.13,WSW,240,5.0,7.0,86,-99.99,,,-99.99,,2013-08-10 11:00:00,
2013-08-10 07:33:00,80.0,76.0,30.13,WSW,240,5.0,7.0,86,-99.99,,,-99.99,,2013-08-10 11:33:00,
2013-08-10 07:43:00,80.0,76.0,30.13,WSW,240,5.0,7.0,86,-99.99,,,-99.99,,2013-08-10 11:43:00,
2013-08-10 07:52:00,80.0,76.0,30.13,WSW,240,5.0,7.0,86,-99.99,,,-99.99,,2013-08-10 11:52:00,
2013-08-10 09:00:00,83.0,76.0,30.15,SW,220,10.0,13.0,78,-99.99,,,-99.99,,2013-08-10 13:00:00,
2013-08-10 09:43:00,83.0,76.0,30.15,SW,220,10.0,13.0,78,-99.99,,,-99.99,,2013-08-10 13:43:00,
2013-08-10 09:52:00,83.0,76.0,30.15,SW,220,10.0,13.0,78,-99.99,,,-99.99,,2013-08-10 13:52:00,
2013-08-10 10:00:00,83.0,76.0,30.15,SSW,210,10.0,13.0,79,-99.99,,,-99.99,,2013-08-10 14:00:00,
2013-08-10 10:32:00,83.0,76.0,30.15,SSW,210,10.0,13.0,79,-99.99,,,-99.99,,2013-08-10 14:32:00,
2013-08-10 10:42:00,83.0,76.0,30.15,SSW,210,10.0,13.0,79,-99.99,,,-99.99,,2013-08-10 14:42:00,
2013-08-10 10:53:00,83.0,76.0,30.15,SSW,210,10.0,13.0,79,-99.99,,,-99.99,,2013-08-10 14:53:00,
2013-08-10 11:00:00,83.0,75.0,30.16,SSW,210,12.0,13.0,75,-99.99,,,-99.99,,2013-08-10 15:00:00,
2013-08-10 11:33:00,83.0,75.0,30.16,SSW,210,12.0,13.0,75,-99.99,,,-99.99,,2013-08-10 15:33:00,
2013-08-10 11:43:00,83.0,75.0,30.16,SSW,210,12.0,13.0,75,-99.99,,,-99.99,,2013-08-10 15:43:00,
2013-08-10 11:52:00,83.0,75.0,30.16,SSW,210,12.0,13.0,75,-99.99,,,-99.99,,2013-08-10 15:52:00,
2013-08-10 12:00:00,84.0,76.0,30.16,SSW,210,13.0,14.0,77,-99.99,,,-99.99,,2013-08-10 16:00:00,
2013-08-10 12:32:00,84.0,76.0,30.16,SSW,210,13.0,14.0,77,-99.99,,,-99.99,,2013-08-10 16:32:00,
2013-08-10 12:43:00,84.0,76.0,30.16,SSW,210,13.0,14.0,77,-99.99,,,-99.99,,2013-08-10 16:43:00,
2013-08-10 12:53:00,84.0,76.0,30.16,SSW,210,13.0,14.0,77,-99.99,,,-99.99,,2013-08-10 16:53:00,
2013-08-10 13:00:00,85.0,76.0,30.16,SSW,200,13.0,17.0,74,-99.99,,,-99.99,,2013-08-10 17:00:00,
2013-08-10 13:33:00,85.0,76.0,30.16,SSW,200,13.0,17.0,74,-99.99,,,-99.99,,2013-08-10 17:33:00,
2013-08-10 13:43:00,85.0,76.0,30.16,SSW,200,13.0,17.0,74,-99.99,,,-99.99,,2013-08-10 17:43:00,
2013-08-10 13:52:00,85.0,76.0,30.16,SSW,200,13.0,17.0,74,-99.99,,,-99.99,,2013-08-10 17:52:00,
2013-08-10 14:00:00,84.0,74.0,30.15,SSW,210,17.0,18.0,73,-99.99,,,-99.99,,2013-08-10 18:00:00,
2013-08-10 14:32:00,84.0,74.0,30.15,SSW,210,17.0,18.0,73,-99.99,,,-99.99,,2013-08-10 18:32:00,
2013-08-10 14:43:00,84.0,74.0,30.15,SSW,210,17.0,18.0,73,-99.99,,,-99.99,,2013-08-10 18:43:00,
2013-08-10 14:52:00,84.0,74.0,30.15,SSW,210,17.0,18.0,73,-99.99,,,-99.99,,2013-08-10 18:52:00,
2013-08-10 15:00:00,85.0,75.0,30.13,SSW,200,15.0,17.0,71,-99.99,,,-99.99,,2013-08-10 19:00:00,
2013-08-10 15:32:00,85.0,75.0,30.13,SSW,200,15.0,17.0,71,-99.99,,,-99.99,,2013-08-10 19:32:00,
2013-08-10 15:43:00,85.0,75.0,30.13,SSW,200,15.0,17.0,71,-99.99,,,-99.99,,2013-08-10 19:43:00,
2013-08-10 15:53:00,85.0,75.0,30.13,SSW,200,15.0,17.0,71,-99.99,,,-99.99,,2013-08-10 19:53:00,
2013-08-10 16:00:00,85.0,74.0,30.12,SSW,200,16.0,20.0,69,-99.99,,,-99.99,,2013-08-10 20:00:00,
2013-08-10 16:33:00,85.0,74.0,30.12,SSW,200,16.0,20.0,69,-99.99,,,-99.99,,2013-08-10 20:33:00,
2013-08-10 16:43:00,85.0,74.0,30.12,SSW,200,16.0,20.0,69,-99.99,,,-99.99,,2013-08-10 20:43:00,
2013-08-10 16:52:00,85.0,74.0,30.12,SSW,200,16.0,20.0,69,-99.99,,,-99.99,,2013-08-10 20:52:00,
2013-08-10 17:00:00,85.0,75.0,30.11,SSW,210,15.0,17.0,74,-99.99,,,-99.99,,2013-08-10 21:00:00,
2013-08-10 17:32:00,85.0,75.0,30.11,SSW,210,15.0,17.0,74,-99.99,,,-99.99,,2013-08-10 21:32:00,
2013-08-10 17:42:00,85.0,75.0,30.11,SSW,210,15.0,17.0,74,-99.99,,,-99.99,,2013-08-10 21:42:00,
2013-08-10 17:52:00,85.0,75.0,30.11,SSW,210,15.0,17.0,74,-99.99,,,-99.99,,2013-08-10 21:52:00,
2013-08-10 18:00:00,84.0,76.0,30.11,SSW,210,17.0,20.0,76,-99.99,,,-99.99,,2013-08-10 22:00:00,
2013-08-10 18:32:00,84.0,76.0,30.11,SSW,210,17.0,20.0,76,-99.99,,,-99.99,,2013-08-10 22:32:00,
2013-08-10 18:43:00,84.0,76.0,30.11,SSW,210,17.0,20.0,76,-99.99,,,-99.99,,2013-08-10 22:43:00,
2013-08-10 18:52:00,84.0,76.0,30.11,SSW,210,17.0,20.0,76,-99.99,,,-99.99,,2013-08-10 22:52:00,
2013-08-10 19:00:00,84.0,76.0,30.11,SSW,210,17.0,21.0,76,-99.99,,,-99.99,,2013-08-10 23:00:00,
2013-08-10 19:32:00,84.0,76.0,30.11,SSW,210,17.0,21.0,76,-99.99,,,-99.99,,2013-08-10 23:32:00,
2013-08-10 19:43:00,84.0,76.0,30.11,SSW,210,17.0,21.0,76,-99.99,,,-99.99,,2013-08-10 23:43:00,
2013-08-10 19:53:00,84.0,76.0,30.11,SSW,210,17.0,21.0,76,-99.99,,,-99.99,,2013-08-10 23:53:00,
2013-08-10 21:00:00,83.0,76.0,30.12,SSW,210,14.0,16.0,78,-99.99,,,-99.99,,2013-08-11 01:00:00,
2013-08-10 21:42:00,83.0,76.0,30.12,SSW,210,14.0,16.0,78,-99.99,,,-99.99,,2013-08-11 01:42:00,
2013-08-10 21:53:00,83.0,76.0,30.12,SSW,210,14.0,16.0,78,-99.99,,,-99.99,,2013-08-11 01:53:00,
2013-08-10 22:00:00,83.0,76.0,30.14,SSW,210,15.0,16.0,79,-99.99,,,-99.99,,2013-08-11 02:00:00,
2013-08-10 22:43:00,83.0,76.0,30.14,SSW,210,15.0,16.0,79,-99.99,,,-99.99,,2013-08-11 02:43:00,
2013-08-10 22:53:00,83.0,76.0,30.14,SSW,210,15.0,16.0,79,-99.99,,,-99.99,,2013-08-11 02:53:00,